HB9TQJ-6 Weather Reports


time (UTC)temp
F
wind
direction
speed
knots
gust
knots
rain 1hr
in
rain 24hr
in
rain mn
in
humidity
%
barometer
mb
20260506184353 55 90 0.9 1.7 0.00 0.25 0.25 83 1009.2
20260506183352 55 90 0.9 1.7 0.00 0.25 0.25 83 1009.2
20260506182350 55 90 0.9 1.7 0.00 0.25 0.25 82 1009.2
20260506181347 55 90 0.9 1.7 0.00 0.25 0.25 82 1009.2
20260506180345 56 116 0.9 1.7 0.00 0.25 0.25 81 1009.0
20260506175343 56 90 0.9 1.7 0.00 0.25 0.25 82 1009.0
20260506174354 56 90 0.9 1.7 0.00 0.25 0.25 82 1009.0
20260506173340 56 90 0.9 1.7 0.00 0.25 0.25 81 1008.7
20260506172356 56 90 0.9 1.7 0.00 0.25 0.25 80 1008.6
20260506171335 56 90 0.9 1.7 0.00 0.25 0.25 81 1008.4
20260506170353 57 90 0.9 1.7 0.00 0.25 0.25 82 1008.5
20260506165331 57 90 0.9 0.9 0.00 0.25 0.25 81 1008.5
20260506164349 57 90 0.9 1.7 0.00 0.25 0.25 81 1008.4
20260506163356 57 90 0.9 1.7 0.00 0.25 0.25 80 1008.3
20260506162345 57 90 0.9 1.7 0.00 0.25 0.25 80 1008.3
20260506161322 57 90 0.9 1.7 0.00 0.25 0.25 80 1008.3
20260506160321 57 90 0.9 1.7 0.00 0.25 0.25 79 1008.4
20260506155319 57 90 0.9 1.7 0.00 0.25 0.25 80 1008.3
20260506154317 57 90 0.9 1.7 0.00 0.25 0.25 78 1008.3
20260506153315 57 90 0.9 1.7 0.00 0.25 0.25 79 1008.2
20260506152314 58 90 0.9 1.7 0.00 0.25 0.25 77 1008.2
20260506151311 58 90 0.9 1.7 0.00 0.25 0.25 77 1008.2
20260506150309 58 90 0.9 0.9 0.00 0.25 0.25 75 1008.2
20260506145327 58 90 0.9 1.7 0.00 0.25 0.25 75 1008.1
20260506144307 58 51 0.9 0.9 0.00 0.25 0.25 78 1008.1
20260506143304 58 90 0.9 1.7 0.00 0.25 0.25 76 1008.1
20260506142301 58 90 0.9 1.7 0.00 0.25 0.25 77 1008.2
20260506141259 57 90 0.9 1.7 0.02 0.25 0.25 79 1008.1
20260506140257 57 90 0.9 1.7 0.05 0.25 0.25 79 1008.1
20260506135255 57 90 0.9 1.7 0.06 0.25 0.25 80 1008.2
20260506134254 57 90 0.9 1.7 0.06 0.25 0.25 80 1008.2
20260506133251 57 90 0.9 2.6 0.07 0.25 0.25 81 1008.1
20260506132248 57 122 0.9 2.6 0.09 0.25 0.25 81 1008.1
20260506131248 57 90 0.9 1.7 0.08 0.23 0.22 81 1008.0
20260506130244 58 90 0.9 1.7 0.06 0.21 0.20 80 1007.8
20260506125244 58 90 0.9 1.7 0.07 0.20 0.19 81 1007.7
20260506124251 58 57 0.9 1.7 0.08 0.19 0.18 81 1007.7
20260506123328 58 57 0.9 1.7 0.09 0.18 0.17 80 1007.6
20260506122256 59 90 0.9 1.7 0.08 0.16 0.16 80 1007.5
20260506121235 59 49 0.9 1.7 0.08 0.15 0.14 81 1007.3
20260506120233 59 90 0.9 1.7 0.08 0.14 0.14 81 1007.2
20260506115231 59 37 0.9 3.5 0.07 0.13 0.12 81 1007.1
20260506114228 59 48 0.9 1.7 0.06 0.11 0.10 81 1006.9
20260506113227 59 48 0.9 1.7 0.06 0.10 0.09 82 1006.9
20260506112228 59 60 0.9 1.7 0.05 0.08 0.07 81 1006.9
20260506111243 59 90 0.9 1.7 0.05 0.07 0.06 80 1007.0
20260506110221 59 90 0.9 1.7 0.04 0.06 0.06 81 1007.0
20260506105219 59 90 0.9 1.7 0.04 0.06 0.05 80 1006.8
20260506104237 59 90 0.9 1.7 0.03 0.05 0.04 79 1006.7
20260506103214 59 90 0.9 1.7 0.02 0.04 0.03 78 1006.7
20260506102213 59 90 0.9 1.7 0.01 0.03 0.02 76 1006.7
20260506101211 59 90 0.9 1.7 0.00 0.02 0.02 76 1006.7
20260506100209 59 90 0.9 1.7 0.00 0.02 0.01 74 1006.7
20260506095207 59 54 0.9 0.9 0.00 0.02 0.01 73 1006.6
20260506094205 59 90 0.9 0.9 0.00 0.02 0.01 73 1006.4
20260506093203 59 90 0.9 0.9 0.00 0.02 0.01 73 1006.4
20260506092201 59 45 0.9 0.9 0.00 0.02 0.01 74 1006.4
20260506091159 59 90 0.9 1.7 0.00 0.02 0.01 74 1006.4
20260506090200 59 90 0.9 1.7 0.00 0.02 0.01 74 1006.4
20260506085155 59 49 0.9 1.7 0.00 0.02 0.01 75 1006.2
20260506084155 59 49 0.9 1.7 0.00 0.02 0.01 75 1006.2
20260506083152 59 90 0.9 0.9 0.00 0.02 0.01 74 1006.2
20260506082149 59 90 0.9 1.7 0.00 0.02 0.01 76 1006.0
20260506081152 58 90 0.9 1.7 0.00 0.02 0.01 77 1006.0
20260506080147 58 30 0.9 0.9 0.00 0.02 0.01 78 1006.1
20260506073139 57 52 0.9 1.7 0.00 0.02 0.01 79 1006.2
20260506072138 56 49 0.9 0.9 0.00 0.03 0.01 80 1006.2
20260506071136 56 45 0.9 1.7 0.00 0.04 0.01 80 1006.2
20260506070133 55 48 0.9 1.7 0.00 0.04 0.01 81 1006.2
20260506062125 54 56 0.9 1.7 0.00 0.04 0.01 82 1006.2
20260506061124 54 90 0.9 1.7 0.00 0.04 0.01 83 1006.2
20260506060122 53 90 0.9 1.7 0.00 0.04 0.01 83 1006.3
20260506051112 52 48 0.9 1.7 0.00 0.04 0.01 84 1006.2
20260506050109 52 45 0.9 1.7 0.00 0.04 0.01 84 1006.2
20260506045106 52 90 0.9 0.9 0.00 0.04 0.01 84 1006.3
20260506044111 52 60 0.9 1.7 0.00 0.04 0.01 84 1006.2
20260506043103 52 90 0.9 1.7 0.00 0.04 0.01 84 1006.3
20260506042102 52 90 0.9 0.9 0.01 0.04 0.01 84 1006.5
20260506041059 52 90 0.9 1.7 0.01 0.04 0.01 84 1006.6
20260506040057 52 90 0.9 1.7 0.01 0.04 0.01 84 1006.6
20260506035055 52 59 0.9 1.7 0.01 0.04 0.01 84 1006.7
20260506034112 52 60 0.9 0.9 0.01 0.04 0.01 84 1006.7
20260506033050 52 90 0.9 0.9 0.01 0.04 0.01 84 1006.9
20260506032054 52 90 0.9 0.9 0.00 0.03 0.00 84 1006.8
20260506031054 52 90 0.9 0.9 0.00 0.03 0.00 84 1006.9
20260506030106 52 90 0.9 1.7 0.00 0.03 0.00 84 1007.0
20260506025044 52 90 0.9 0.9 0.00 0.03 0.00 83 1007.1
20260506024102 52 90 0.9 1.7 0.00 0.03 0.00 83 1007.1
20260506023038 52 90 0.9 0.9 0.00 0.03 0.00 83 1007.1
20260506022058 53 90 0.9 1.7 0.00 0.03 0.00 83 1007.1
20260506021035 53 90 0.9 1.7 0.00 0.03 0.00 83 1007.2
20260506020033 53 90 0.9 1.7 0.00 0.03 0.00 82 1007.2
20260506015054 53 90 0.9 0.9 0.00 0.03 0.00 83 1007.4
20260506014050 53 90 0.9 1.7 0.00 0.03 0.00 83 1007.4
20260506013028 53 90 0.9 1.7 0.00 0.03 0.00 83 1007.5
20260506012026 54 90 0.9 0.9 0.00 0.03 0.00 82 1007.6
20260506011024 54 90 0.9 1.7 0.00 0.03 0.00 83 1007.7
20260506010021 54 90 0.9 1.7 0.00 0.03 0.00 83 1007.8
20260506005020 53 90 0.9 1.7 0.00 0.03 0.00 83 1007.9
20260506004017 53 90 0.9 1.7 0.00 0.03 0.00 83 1007.9
20260506003020 53 90 0.9 1.7 0.00 0.03 0.00 83 1007.9
20260506002014 54 90 0.9 1.7 0.00 0.03 0.00 82 1008.1
20260506001012 54 90 0.9 1.7 0.00 0.03 0.00 82 1008.1
20260506000010 54 90 0.9 1.7 0.00 0.03 0.00 82 1008.2
20260505235027 54 90 0.9 1.7 0.00 0.03 0.00 82 1008.3
20260505234005 54 90 0.9 1.7 0.00 0.03 0.00 82 1008.4
20260505233023 54 90 0.9 1.7 0.00 0.03 0.00 83 1008.5
20260505231500 54 90 0.9 1.7 0.00 0.03 0.00 83 1008.6
20260505230459 54 90 0.9 1.7 0.00 0.03 0.00 83 1008.6
20260505225457 54 59 0.9 1.7 0.00 0.03 0.00 83 1008.6
20260505224514 54 90 0.9 1.7 0.00 0.03 0.00 83 1008.6
20260505223452 53 90 0.9 1.7 0.00 0.03 0.00 83 1008.6
20260505222450 53 90 0.9 1.7 0.00 0.03 0.00 83 1008.5
20260505221448 53 75 0.9 1.7 0.00 0.03 0.00 83 1008.6
20260505220446 53 90 0.9 1.7 0.00 0.03 0.00 83 1008.7
20260505215444 54 90 0.9 1.7 0.00 0.03 0.03 83 1008.7
20260505214442 54 90 0.9 1.7 0.00 0.03 0.03 83 1008.7
20260505213440 54 90 0.9 1.7 0.00 0.03 0.03 82 1008.8
20260505212438 54 90 0.9 1.7 0.00 0.03 0.03 82 1008.8
20260505211436 54 90 0.9 1.7 0.00 0.03 0.03 82 1008.8
20260505210435 54 90 0.9 1.7 0.00 0.03 0.03 82 1008.8
20260505205432 55 90 0.9 1.7 0.00 0.03 0.03 82 1008.8
20260505204451 55 90 0.9 2.6 0.00 0.03 0.03 82 1008.8
20260505203428 55 90 0.9 1.7 0.00 0.03 0.03 82 1009.0
20260505202426 55 90 0.9 1.7 0.00 0.03 0.03 82 1008.8
20260505201424 55 90 0.9 1.7 0.00 0.03 0.03 82 1008.6
20260505200422 56 90 0.9 1.7 0.00 0.03 0.03 82 1008.6
20260505195421 56 90 0.9 3.5 0.00 0.03 0.03 82 1008.5
20260505194418 56 90 0.9 1.7 0.00 0.03 0.03 82 1008.3
20260505193423 56 113 0.9 1.7 0.00 0.03 0.03 82 1008.3
20260505192414 57 109 0.9 1.7 0.00 0.03 0.03 82 1008.2
20260505191412 57 135 0.9 2.6 0.00 0.03 0.03 82 1008.2
20260505190410 58 90 0.9 1.7 0.00 0.03 0.03 81 1008.2
20260505185413 59 90 0.9 1.7 0.00 0.03 0.03 81 1008.1